TimeCST,TemperatureF,Dew PointF,Humidity,Sea Level PressureIn,VisibilityMPH,Wind Direction,Wind SpeedMPH,Gust SpeedMPH,PrecipitationIn,Events,Conditions,WindDirDegrees,DateUTC
12:54 AM,33.1,27.0,78,30.15,10.0,NNE,8.1,-,N/A,,Overcast,30,2012-12-27 06:54:00
1:54 AM,32.0,26.1,79,30.14,10.0,ENE,8.1,-,N/A,,Overcast,60,2012-12-27 07:54:00
2:11 AM,32.0,24.8,75,30.14,10.0,ENE,9.2,-,N/A,,Overcast,60,2012-12-27 08:11:00
2:54 AM,32.0,25.0,75,30.14,10.0,East,4.6,-,N/A,,Overcast,90,2012-12-27 08:54:00
3:54 AM,32.0,26.1,79,30.15,10.0,ENE,4.6,-,N/A,,Overcast,70,2012-12-27 09:54:00
4:54 AM,32.0,26.1,79,30.15,10.0,NNE,3.5,-,N/A,,Overcast,30,2012-12-27 10:54:00
5:54 AM,32.0,26.1,79,30.14,10.0,ENE,5.8,-,N/A,,Overcast,70,2012-12-27 11:54:00
6:54 AM,32.0,27.0,82,30.16,10.0,SE,4.6,-,N/A,,Overcast,140,2012-12-27 12:54:00
7:54 AM,32.0,27.0,82,30.17,10.0,East,4.6,-,N/A,,Overcast,90,2012-12-27 13:54:00
8:54 AM,32.0,27.0,82,30.20,10.0,ENE,6.9,-,N/A,,Overcast,60,2012-12-27 14:54:00
9:54 AM,34.0,28.0,79,30.20,10.0,SE,6.9,-,N/A,,Overcast,140,2012-12-27 15:54:00
10:54 AM,36.0,28.9,76,30.19,10.0,South,5.8,-,N/A,,Mostly Cloudy,180,2012-12-27 16:54:00
11:17 AM,37.4,28.4,70,30.18,10.0,ENE,3.5,-,N/A,,Scattered Clouds,70,2012-12-27 17:17:00
11:54 AM,39.0,28.9,67,30.16,10.0,SSE,3.5,-,N/A,,Partly Cloudy,160,2012-12-27 17:54:00
12:54 PM,42.1,30.0,62,30.13,10.0,South,4.6,-,N/A,,Clear,180,2012-12-27 18:54:00
1:54 PM,44.1,28.9,55,30.10,10.0,Calm,Calm,-,N/A,,Clear,0,2012-12-27 19:54:00
2:54 PM,44.1,28.9,55,30.09,10.0,Calm,Calm,-,N/A,,Clear,0,2012-12-27 20:54:00
3:54 PM,46.0,28.9,51,30.10,10.0,Calm,Calm,-,N/A,,Clear,0,2012-12-27 21:54:00
4:54 PM,44.1,30.9,60,30.09,10.0,Calm,Calm,-,N/A,,Clear,0,2012-12-27 22:54:00
5:54 PM,39.0,32.0,76,30.09,10.0,ENE,4.6,-,N/A,,Clear,70,2012-12-27 23:54:00
6:54 PM,39.0,32.0,76,30.07,10.0,ENE,8.1,-,N/A,,Clear,70,2012-12-28 00:54:00
7:54 PM,41.0,30.9,67,30.05,10.0,East,6.9,-,N/A,,Mostly Cloudy,90,2012-12-28 01:54:00
8:54 PM,42.1,32.0,67,30.05,10.0,Calm,Calm,-,N/A,,Overcast,0,2012-12-28 02:54:00
9:54 PM,42.1,33.1,70,30.06,10.0,South,4.6,-,N/A,,Overcast,190,2012-12-28 03:54:00
10:54 PM,42.1,33.1,70,30.06,10.0,SE,5.8,-,N/A,,Overcast,140,2012-12-28 04:54:00
11:54 PM,42.1,33.1,70,30.02,10.0,SE,10.4,-,N/A,,Mostly Cloudy,130,2012-12-28 05:54:00